This is the latest recevied weather packets stored in our database for station/object N7CEE. If no packets are shown the sender has not sent any weather packets the latest 10 day(s).
| Time | Temp. | Humidity | Pressure | Rain* | Wind** | Luminosity | Snow |
|---|---|---|---|---|---|---|---|
| 1777732209 | 7.78° C | 36% | 1027 hPa | 0 mm | - | 27 W/m² | - |
| 1777731905 | 7.78° C | 36% | 1027.1 hPa | 0 mm | - | 34 W/m² | - |
| 1777731602 | 7.22° C | 38% | 1027.2 hPa | 0 mm | - | 27 W/m² | - |
| 1777731299 | 6.67° C | 40% | 1026.8 hPa | 0 mm | - | 31 W/m² | - |
| 1777730996 | 6.67° C | 39% | 1026.8 hPa | 0 mm | - | 34 W/m² | - |
| 1777730695 | 6.11° C | 39% | 1027.1 hPa | 0 mm | - | 69 W/m² | - |
| 1777730391 | 5.56° C | 39% | 1026.8 hPa | 0 mm | - | 33 W/m² | - |
| 1777730087 | 5° C | 40% | 1026.7 hPa | 0 mm | - | 41 W/m² | - |
| 1777729784 | 5° C | 41% | 1026.5 hPa | 0 mm | - | 50 W/m² | - |
| 1777729481 | 3.89° C | 41% | 1026.5 hPa | 0 mm | - | 25 W/m² | - |
| 1777729177 | 3.89° C | 44% | 1026.5 hPa | 0 mm | - | 32 W/m² | - |
| 1777728874 | 3.33° C | 45% | 1026.3 hPa | 0 mm | - | 29 W/m² | - |
| 1777728571 | 2.78° C | 45% | 1026.2 hPa | 0 mm | - | 21 W/m² | - |
| 1777728268 | 2.78° C | 45% | 1026.5 hPa | 0 mm | - | 20 W/m² | - |
| 1777727965 | 2.78° C | 46% | 1026.6 hPa | 0 mm | - | 18 W/m² | - |
| 1777727662 | 2.78° C | 44% | 1026.2 hPa | 0 mm | - | 16 W/m² | - |
| 1777727359 | 2.22° C | 44% | 1026.2 hPa | 0 mm | - | 15 W/m² | - |
| 1777727056 | 2.22° C | 46% | 1026.1 hPa | 0 mm | - | 14 W/m² | - |
| 1777726754 | 2.78° C | 43% | 1026.1 hPa | 0 mm | - | 12 W/m² | - |
| 1777726451 | 2.78° C | 42% | 1025.8 hPa | 0 mm | - | 9 W/m² | - |
| 1777726147 | 2.78° C | 43% | 1026.1 hPa | 0 mm | - | 7 W/m² | - |
| 1777725844 | 2.78° C | 42% | 1026.1 hPa | 0 mm | - | 5 W/m² | - |
| 1777725542 | 2.78° C | 43% | 1026 hPa | 0 mm | - | 3 W/m² | - |
| 1777725239 | 2.78° C | 42% | 1025.8 hPa | 0 mm | - | 2 W/m² | - |
| 1777724936 | 2.78° C | 43% | 1025.7 hPa | 0 mm | - | 1 W/m² | - |
* Rain latest hour (hover to see other rain measurements)
** Current wind speed in m/s (hover to see current wind gust speed)